Time,TemperatureF,DewpointF,PressureIn,WindDirection,WindDirectionDegrees,WindSpeedMPH,WindSpeedGustMPH,Humidity,HourlyPrecipIn,Conditions,Clouds,dailyrainin,SoftwareType,DateUTC
2013-03-22 00:00:00,30.4,-0.8,29.56,North,353,2.0,9.0,26,0.00,,,0.00,Weather View 32 v70,2013-03-22 04:00:00,
2013-03-22 00:01:00,30.4,-1.4,29.56,SW,228,1.0,9.0,25,0.00,,,0.00,Weather View 32 v70,2013-03-22 04:01:00,
2013-03-22 00:06:00,30.4,-1.7,29.56,WNW,289,3.0,9.0,25,0.00,,,0.00,Weather View 32 v70,2013-03-22 04:06:00,
2013-03-22 00:11:00,30.4,-1.5,29.56,North,2,2.0,10.0,25,0.00,,,0.00,Weather View 32 v70,2013-03-22 04:11:00,
2013-03-22 00:16:00,30.4,-2.7,29.56,NW,308,2.0,10.0,23,0.00,,,0.00,Weather View 32 v70,2013-03-22 04:16:00,
2013-03-22 00:21:00,30.4,-3.5,29.56,WNW,285,9.0,13.0,23,0.00,,,0.00,Weather View 32 v70,2013-03-22 04:21:00,
2013-03-22 00:26:00,30.4,-3.8,29.56,WSW,256,4.0,13.0,22,0.00,,,0.00,Weather View 32 v70,2013-03-22 04:26:00,
2013-03-22 00:31:00,30.4,-4.1,29.56,WNW,291,5.0,13.0,22,0.00,,,0.00,Weather View 32 v70,2013-03-22 04:31:00,
2013-03-22 00:36:00,30.2,-4.4,29.56,NW,315,11.0,13.0,22,0.00,,,0.00,Weather View 32 v70,2013-03-22 04:36:00,
2013-03-22 00:41:00,30.2,-5.6,29.56,North,360,4.0,13.0,21,0.00,,,0.00,Weather View 32 v70,2013-03-22 04:41:00,
2013-03-22 00:46:00,30.2,-6.0,29.56,NW,314,8.0,13.0,20,0.00,,,0.00,Weather View 32 v70,2013-03-22 04:46:00,
2013-03-22 00:51:00,30.0,-5.7,29.56,NNW,331,6.0,13.0,21,0.00,,,0.00,Weather View 32 v70,2013-03-22 04:51:00,
2013-03-22 00:56:00,30.0,-5.8,29.59,NNW,341,3.0,13.0,20,0.00,,,0.00,Weather View 32 v70,2013-03-22 04:56:00,
2013-03-22 01:01:00,30.0,-5.6,29.56,NNE,12,3.0,13.0,21,0.00,,,0.00,Weather View 32 v70,2013-03-22 05:01:00,
2013-03-22 01:06:00,29.8,-5.8,29.59,NW,306,5.0,13.0,21,0.00,,,0.00,Weather View 32 v70,2013-03-22 05:06:00,
2013-03-22 01:11:00,29.6,-6.2,29.59,WSW,256,6.0,13.0,20,0.00,,,0.00,Weather View 32 v70,2013-03-22 05:11:00,
2013-03-22 01:16:00,29.8,-5.5,29.59,West,271,3.0,13.0,21,0.00,,,0.00,Weather View 32 v70,2013-03-22 05:16:00,
2013-03-22 01:21:00,29.6,-5.8,29.56,NW,326,4.0,13.0,21,0.00,,,0.00,Weather View 32 v70,2013-03-22 05:21:00,
2013-03-22 01:26:00,29.6,-5.2,29.59,WNW,284,3.0,13.0,21,0.00,,,0.00,Weather View 32 v70,2013-03-22 05:26:00,
2013-03-22 01:31:00,29.5,-6.5,29.59,WNW,294,6.0,13.0,20,0.00,,,0.00,Weather View 32 v70,2013-03-22 05:31:00,
2013-03-22 01:36:00,29.6,-5.7,29.59,WNW,289,4.0,13.0,21,0.00,,,0.00,Weather View 32 v70,2013-03-22 05:36:00,
2013-03-22 01:41:00,29.3,-5.7,29.59,West,270,2.0,13.0,21,0.00,,,0.00,Weather View 32 v70,2013-03-22 05:41:00,
2013-03-22 01:46:00,29.5,-5.8,29.59,NNW,341,2.0,13.0,21,0.00,,,0.00,Weather View 32 v70,2013-03-22 05:46:00,
2013-03-22 01:51:00,29.3,-6.0,29.59,NNW,341,6.0,13.0,21,0.00,,,0.00,Weather View 32 v70,2013-03-22 05:51:00,
2013-03-22 01:56:00,29.3,-6.2,29.59,West,273,3.0,13.0,21,0.00,,,0.00,Weather View 32 v70,2013-03-22 05:56:00,
2013-03-22 02:01:00,29.5,-5.7,29.59,ESE,120,0.0,13.0,21,0.00,,,0.00,Weather View 32 v70,2013-03-22 06:01:00,
2013-03-22 02:06:00,29.1,-6.3,29.59,WNW,295,3.0,13.0,21,0.00,,,0.00,Weather View 32 v70,2013-03-22 06:06:00,
2013-03-22 02:11:00,29.1,-6.0,29.59,WNW,300,0.0,13.0,21,0.00,,,0.00,Weather View 32 v70,2013-03-22 06:11:00,
2013-03-22 02:16:00,29.1,-6.2,29.59,NNW,332,4.0,13.0,21,0.00,,,0.00,Weather View 32 v70,2013-03-22 06:16:00,
2013-03-22 02:21:00,28.9,-6.0,29.59,NW,322,2.0,12.0,21,0.00,,,0.00,Weather View 32 v70,2013-03-22 06:21:00,
2013-03-22 02:26:00,29.1,-6.0,29.59,West,271,3.0,11.0,21,0.00,,,0.00,Weather View 32 v70,2013-03-22 06:26:00,
2013-03-22 02:31:00,29.1,-5.7,29.56,SSW,209,0.0,11.0,21,0.00,,,0.00,Weather View 32 v70,2013-03-22 06:31:00,
2013-03-22 02:36:00,28.7,-6.0,29.59,WSW,251,1.0,11.0,21,0.00,,,0.00,Weather View 32 v70,2013-03-22 06:36:00,
2013-03-22 02:41:00,28.7,-5.6,29.59,SSW,193,2.0,11.0,22,0.00,,,0.00,Weather View 32 v70,2013-03-22 06:41:00,
2013-03-22 02:47:00,28.6,-5.5,29.59,WNW,289,4.0,11.0,22,0.00,,,0.00,Weather View 32 v70,2013-03-22 06:47:00,
2013-03-22 02:52:00,28.6,-5.4,29.59,SSE,152,3.0,11.0,22,0.00,,,0.00,Weather View 32 v70,2013-03-22 06:52:00,
2013-03-22 02:57:00,28.2,-6.1,29.59,West,273,5.0,11.0,22,0.00,,,0.00,Weather View 32 v70,2013-03-22 06:57:00,
2013-03-22 03:02:00,28.2,-6.3,29.59,SW,233,2.0,11.0,22,0.00,,,0.00,Weather View 32 v70,2013-03-22 07:02:00,
2013-03-22 03:07:00,28.0,-5.9,29.56,NNW,332,1.0,11.0,22,0.00,,,0.00,Weather View 32 v70,2013-03-22 07:07:00,
2013-03-22 03:12:00,27.7,-5.5,29.59,South,182,5.0,11.0,23,0.00,,,0.00,Weather View 32 v70,2013-03-22 07:12:00,
2013-03-22 03:17:00,27.7,-6.2,29.59,SSE,168,3.0,11.0,22,0.00,,,0.00,Weather View 32 v70,2013-03-22 07:17:00,
2013-03-22 03:22:00,27.5,-6.7,29.56,NNE,31,1.0,11.0,22,0.00,,,0.00,Weather View 32 v70,2013-03-22 07:22:00,
2013-03-22 03:27:00,27.3,-6.7,29.62,WNW,293,2.0,16.0,22,0.00,,,0.00,Weather View 32 v70,2013-03-22 07:27:00,
2013-03-22 03:32:00,27.3,-6.9,29.59,SW,224,5.0,16.0,22,0.00,,,0.00,Weather View 32 v70,2013-03-22 07:32:00,
2013-03-22 03:37:00,27.1,-7.3,29.59,NNW,333,5.0,16.0,21,0.00,,,0.00,Weather View 32 v70,2013-03-22 07:37:00,
2013-03-22 03:42:00,27.1,-6.7,29.59,North,0,1.0,16.0,22,0.00,,,0.00,Weather View 32 v70,2013-03-22 07:42:00,
2013-03-22 03:47:00,26.9,-7.2,29.59,SSW,193,4.0,16.0,22,0.00,,,0.00,Weather View 32 v70,2013-03-22 07:47:00,
2013-03-22 03:52:00,26.9,-8.1,29.59,NNW,327,4.0,16.0,21,0.00,,,0.00,Weather View 32 v70,2013-03-22 07:52:00,
2013-03-22 03:57:00,26.9,-7.0,29.59,South,174,2.0,16.0,22,0.00,,,0.00,Weather View 32 v70,2013-03-22 07:57:00,
2013-03-22 04:02:00,26.8,-7.9,29.59,NNE,28,3.0,16.0,21,0.00,,,0.00,Weather View 32 v70,2013-03-22 08:02:00,
2013-03-22 04:07:00,26.8,-7.1,29.59,SE,128,4.0,16.0,22,0.00,,,0.00,Weather View 32 v70,2013-03-22 08:07:00,
2013-03-22 04:12:00,26.6,-7.3,29.59,SSW,198,2.0,16.0,22,0.00,,,0.00,Weather View 32 v70,2013-03-22 08:12:00,
2013-03-22 04:17:00,26.4,-6.9,29.56,WSW,238,5.0,16.0,22,0.00,,,0.00,Weather View 32 v70,2013-03-22 08:17:00,
2013-03-22 04:23:00,26.4,-7.0,29.59,SSW,210,3.0,16.0,22,0.00,,,0.00,Weather View 32 v70,2013-03-22 08:23:00,
2013-03-22 04:27:00,26.4,-6.5,29.59,South,170,1.0,10.0,23,0.00,,,0.00,Weather View 32 v70,2013-03-22 08:27:00,
2013-03-22 04:33:00,26.4,-6.6,29.56,SSW,198,3.0,10.0,23,0.00,,,0.00,Weather View 32 v70,2013-03-22 08:33:00,
2013-03-22 04:38:00,26.2,-6.3,29.59,ESE,107,2.0,10.0,23,0.00,,,0.00,Weather View 32 v70,2013-03-22 08:38:00,
2013-03-22 04:43:00,25.7,-6.5,29.59,SE,145,3.0,10.0,24,0.00,,,0.00,Weather View 32 v70,2013-03-22 08:43:00,
2013-03-22 04:48:00,25.9,-6.1,29.59,SSE,151,3.0,10.0,24,0.00,,,0.00,Weather View 32 v70,2013-03-22 08:48:00,
2013-03-22 04:53:00,25.7,-6.6,29.62,South,188,2.0,10.0,24,0.00,,,0.00,Weather View 32 v70,2013-03-22 08:53:00,
2013-03-22 04:58:00,25.5,-6.2,29.56,East,101,2.0,10.0,24,0.00,,,0.00,Weather View 32 v70,2013-03-22 08:58:00,
2013-03-22 05:03:00,25.5,-6.1,29.59,South,176,1.0,10.0,24,0.00,,,0.00,Weather View 32 v70,2013-03-22 09:03:00,
2013-03-22 05:08:00,25.3,-5.8,29.59,East,89,2.0,10.0,25,0.00,,,0.00,Weather View 32 v70,2013-03-22 09:08:00,
2013-03-22 05:13:00,25.5,-5.4,29.59,NW,324,2.0,10.0,25,0.00,,,0.00,Weather View 32 v70,2013-03-22 09:13:00,
2013-03-22 05:18:00,25.1,-5.2,29.59,South,177,3.0,10.0,26,0.00,,,0.00,Weather View 32 v70,2013-03-22 09:18:00,
2013-03-22 05:23:00,25.1,-5.2,29.59,SE,135,2.0,10.0,26,0.00,,,0.00,Weather View 32 v70,2013-03-22 09:23:00,
2013-03-22 05:28:00,25.1,-4.9,29.59,SSE,160,4.0,10.0,26,0.00,,,0.00,Weather View 32 v70,2013-03-22 09:28:00,
2013-03-22 05:33:00,25.0,-5.1,29.59,SSE,168,4.0,10.0,26,0.00,,,0.00,Weather View 32 v70,2013-03-22 09:33:00,
2013-03-22 05:38:00,25.1,-4.9,29.59,South,187,4.0,10.0,26,0.00,,,0.00,Weather View 32 v70,2013-03-22 09:38:00,
2013-03-22 05:43:00,25.1,-4.6,29.59,NNE,20,2.0,10.0,26,0.00,,,0.00,Weather View 32 v70,2013-03-22 09:43:00,
2013-03-22 05:48:00,25.1,-4.4,29.59,SSW,193,1.0,10.0,27,0.00,,,0.00,Weather View 32 v70,2013-03-22 09:48:00,
2013-03-22 05:53:00,25.0,-4.6,29.59,SSW,204,1.0,10.0,27,0.00,,,0.00,Weather View 32 v70,2013-03-22 09:53:00,
2013-03-22 05:58:00,24.8,-4.6,29.59,SSW,205,5.0,10.0,27,0.00,,,0.00,Weather View 32 v70,2013-03-22 09:58:00,
2013-03-22 06:03:00,24.8,-4.5,29.59,WSW,239,3.0,10.0,27,0.00,,,0.00,Weather View 32 v70,2013-03-22 10:03:00,
2013-03-22 06:08:00,24.8,-4.6,29.59,South,178,2.0,10.0,27,0.00,,,0.00,Weather View 32 v70,2013-03-22 10:08:00,
2013-03-22 06:13:00,24.4,-4.6,29.59,SSE,158,2.0,10.0,27,0.00,,,0.00,Weather View 32 v70,2013-03-22 10:13:00,
2013-03-22 06:18:00,24.4,-4.4,29.59,South,189,5.0,10.0,28,0.00,,,0.00,Weather View 32 v70,2013-03-22 10:18:00,
2013-03-22 06:23:00,24.8,-4.1,29.59,WNW,294,1.0,10.0,28,0.00,,,0.00,Weather View 32 v70,2013-03-22 10:23:00,
2013-03-22 06:28:00,24.4,-4.4,29.59,WSW,256,2.0,10.0,28,0.00,,,0.00,Weather View 32 v70,2013-03-22 10:28:00,
2013-03-22 06:33:00,24.4,-4.3,29.59,South,189,1.0,10.0,28,0.00,,,0.00,Weather View 32 v70,2013-03-22 10:33:00,
2013-03-22 06:38:00,24.4,-4.2,29.62,SSW,194,1.0,10.0,28,0.00,,,0.00,Weather View 32 v70,2013-03-22 10:38:00,
2013-03-22 06:43:00,24.4,-4.1,29.59,North,10,3.0,10.0,28,0.00,,,0.00,Weather View 32 v70,2013-03-22 10:43:00,
2013-03-22 06:48:00,24.4,-4.0,29.62,SW,214,3.0,8.0,28,0.00,,,0.00,Weather View 32 v70,2013-03-22 10:48:00,
2013-03-22 06:53:00,24.4,-3.7,29.62,NE,36,3.0,8.0,29,0.00,,,0.00,Weather View 32 v70,2013-03-22 10:53:00,
2013-03-22 06:58:00,24.4,-3.6,29.62,WNW,300,1.0,8.0,29,0.00,,,0.00,Weather View 32 v70,2013-03-22 10:58:00,
2013-03-22 07:03:00,24.4,-3.7,29.62,South,173,4.0,8.0,29,0.00,,,0.00,Weather View 32 v70,2013-03-22 11:03:00,
2013-03-22 07:08:00,24.8,-3.2,29.62,SSE,161,1.0,8.0,29,0.00,,,0.00,Weather View 32 v70,2013-03-22 11:08:00,
2013-03-22 07:13:00,25.1,-3.5,29.62,West,266,2.0,8.0,28,0.00,,,0.00,Weather View 32 v70,2013-03-22 11:13:00,
2013-03-22 07:18:00,25.5,-3.1,29.62,South,171,2.0,7.0,28,0.00,,,0.00,Weather View 32 v70,2013-03-22 11:18:00,
2013-03-22 07:23:00,25.7,-3.4,29.62,WSW,258,1.0,7.0,27,0.00,,,0.00,Weather View 32 v70,2013-03-22 11:23:00,
2013-03-22 07:28:00,25.9,-3.5,29.62,SW,235,4.0,11.0,27,0.00,,,0.00,Weather View 32 v70,2013-03-22 11:28:00,
2013-03-22 07:33:00,26.2,-4.0,29.62,West,270,3.0,11.0,26,0.00,,,0.00,Weather View 32 v70,2013-03-22 11:33:00,
2013-03-22 07:38:00,26.6,-3.8,29.62,WSW,244,3.0,11.0,26,0.00,,,0.00,Weather View 32 v70,2013-03-22 11:38:00,
2013-03-22 07:43:00,26.8,-3.6,29.62,WNW,293,4.0,11.0,26,0.00,,,0.00,Weather View 32 v70,2013-03-22 11:43:00,
2013-03-22 07:48:00,27.7,-3.1,29.62,SW,228,1.0,11.0,26,0.00,,,0.00,Weather View 32 v70,2013-03-22 11:48:00,
2013-03-22 07:53:00,26.8,-4.2,29.62,WNW,295,4.0,11.0,25,0.00,,,0.00,Weather View 32 v70,2013-03-22 11:53:00,
2013-03-22 07:58:00,26.9,-3.6,29.62,NW,308,1.0,11.0,26,0.00,,,0.00,Weather View 32 v70,2013-03-22 11:58:00,
2013-03-22 08:03:00,27.7,-3.3,29.62,East,84,1.0,11.0,25,0.00,,,0.00,Weather View 32 v70,2013-03-22 12:03:00,
2013-03-22 08:08:00,28.6,-2.9,29.62,SE,145,2.0,11.0,25,0.00,,,0.00,Weather View 32 v70,2013-03-22 12:08:00,
2013-03-22 08:13:00,28.6,-4.0,29.62,West,264,2.0,11.0,24,0.00,,,0.00,Weather View 32 v70,2013-03-22 12:13:00,
2013-03-22 08:18:00,28.9,-4.0,29.62,WSW,253,3.0,11.0,23,0.00,,,0.00,Weather View 32 v70,2013-03-22 12:18:00,
2013-03-22 08:23:00,28.6,-3.7,29.62,NW,320,5.0,11.0,24,0.00,,,0.00,Weather View 32 v70,2013-03-22 12:23:00,
2013-03-22 08:28:00,28.2,-3.6,29.62,NW,320,6.0,15.0,25,0.00,,,0.00,Weather View 32 v70,2013-03-22 12:28:00,
2013-03-22 08:33:00,29.1,-2.5,29.62,SSW,196,7.0,15.0,25,0.00,,,0.00,Weather View 32 v70,2013-03-22 12:33:00,
2013-03-22 08:38:00,29.8,-2.4,29.62,West,260,0.0,15.0,24,0.00,,,0.00,Weather View 32 v70,2013-03-22 12:38:00,
2013-03-22 08:43:00,30.2,-3.3,29.62,NNW,339,4.0,15.0,23,0.00,,,0.00,Weather View 32 v70,2013-03-22 12:43:00,
2013-03-22 08:48:00,30.2,-4.1,29.62,North,7,2.0,15.0,22,0.00,,,0.00,Weather View 32 v70,2013-03-22 12:48:00,
2013-03-22 08:53:00,30.7,-2.9,29.59,NE,55,1.0,15.0,23,0.00,,,0.00,Weather View 32 v70,2013-03-22 12:53:00,
2013-03-22 08:58:00,30.5,-3.2,29.62,WNW,299,3.0,15.0,23,0.00,,,0.00,Weather View 32 v70,2013-03-22 12:58:00,
2013-03-22 09:04:00,29.6,-4.6,29.62,NNW,327,7.0,15.0,22,0.00,,,0.00,Weather View 32 v70,2013-03-22 13:04:00,
2013-03-22 09:09:00,31.1,-3.1,29.59,WNW,286,2.0,15.0,22,0.00,,,0.00,Weather View 32 v70,2013-03-22 13:09:00,
2013-03-22 09:14:00,31.8,-3.0,29.65,NNE,16,6.0,15.0,22,0.00,,,0.00,Weather View 32 v70,2013-03-22 13:14:00,
2013-03-22 09:19:00,32.2,-2.2,29.62,NW,315,2.0,15.0,22,0.00,,,0.00,Weather View 32 v70,2013-03-22 13:19:00,
2013-03-22 09:24:00,31.8,-3.0,29.62,NNE,15,2.0,15.0,22,0.00,,,0.00,Weather View 32 v70,2013-03-22 13:24:00,
2013-03-22 09:29:00,33.2,-2.4,29.65,NNW,340,2.0,13.0,21,0.00,,,0.00,Weather View 32 v70,2013-03-22 13:29:00,
2013-03-22 09:34:00,32.3,-3.0,29.65,NW,319,4.0,13.0,21,0.00,,,0.00,Weather View 32 v70,2013-03-22 13:34:00,
2013-03-22 09:39:00,32.7,-3.7,29.62,NNW,341,4.0,13.0,20,0.00,,,0.00,Weather View 32 v70,2013-03-22 13:39:00,
2013-03-22 09:44:00,32.7,-2.7,29.62,North,5,3.0,13.0,21,0.00,,,0.00,Weather View 32 v70,2013-03-22 13:44:00,
2013-03-22 09:49:00,31.6,-2.9,29.65,North,349,6.0,15.0,22,0.00,,,0.00,Weather View 32 v70,2013-03-22 13:49:00,
2013-03-22 09:54:00,33.2,-0.3,29.62,West,269,4.0,15.0,23,0.00,,,0.00,Weather View 32 v70,2013-03-22 13:54:00,
2013-03-22 09:59:00,33.8,-1.6,29.62,NW,322,2.0,15.0,22,0.00,,,0.00,Weather View 32 v70,2013-03-22 13:59:00,
2013-03-22 10:04:00,35.6,-1.4,29.62,North,350,2.0,15.0,20,0.00,,,0.00,Weather View 32 v70,2013-03-22 14:04:00,
2013-03-22 10:09:00,33.2,-3.5,29.62,NNW,327,7.0,15.0,20,0.00,,,0.00,Weather View 32 v70,2013-03-22 14:09:00,
2013-03-22 10:14:00,33.2,-1.7,29.62,NNW,348,5.0,15.0,22,0.00,,,0.00,Weather View 32 v70,2013-03-22 14:14:00,
2013-03-22 10:19:00,34.9,-0.3,29.65,NNW,344,4.0,15.0,22,0.00,,,0.00,Weather View 32 v70,2013-03-22 14:19:00,
2013-03-22 10:24:00,35.8,-1.6,29.62,North,11,5.0,15.0,20,0.00,,,0.00,Weather View 32 v70,2013-03-22 14:24:00,
2013-03-22 10:29:00,35.6,-2.2,29.62,NW,307,6.0,15.0,19,0.00,,,0.00,Weather View 32 v70,2013-03-22 14:29:00,
2013-03-22 10:34:00,35.4,-0.8,29.59,West,279,6.0,15.0,21,0.00,,,0.00,Weather View 32 v70,2013-03-22 14:34:00,
2013-03-22 10:39:00,34.1,-2.1,29.65,NNW,328,3.0,15.0,21,0.00,,,0.00,Weather View 32 v70,2013-03-22 14:39:00,
2013-03-22 10:44:00,34.0,-1.9,29.62,NW,306,14.0,18.0,21,0.00,,,0.00,Weather View 32 v70,2013-03-22 14:44:00,
2013-03-22 10:49:00,34.5,-0.1,29.65,West,272,6.0,18.0,22,0.00,,,0.00,Weather View 32 v70,2013-03-22 14:49:00,
2013-03-22 10:54:00,35.4,-0.4,29.62,NW,321,6.0,18.0,21,0.00,,,0.00,Weather View 32 v70,2013-03-22 14:54:00,
2013-03-22 10:59:00,36.1,1.0,29.62,NNW,337,3.0,18.0,22,0.00,,,0.00,Weather View 32 v70,2013-03-22 14:59:00,
2013-03-22 11:04:00,37.2,-0.5,29.62,NNW,332,3.0,18.0,20,0.00,,,0.00,Weather View 32 v70,2013-03-22 15:04:00,
2013-03-22 11:09:00,35.8,-2.2,29.62,NNW,336,2.0,18.0,19,0.00,,,0.00,Weather View 32 v70,2013-03-22 15:09:00,
2013-03-22 11:14:00,38.3,0.6,29.62,WSW,238,1.0,18.0,20,0.00,,,0.00,Weather View 32 v70,2013-03-22 15:14:00,
2013-03-22 11:19:00,37.6,-1.3,29.62,WSW,244,2.0,96.0,19,0.00,,,0.00,Weather View 32 v70,2013-03-22 15:19:00,
2013-03-22 11:24:00,36.8,-1.9,29.62,WNW,293,6.0,96.0,19,0.00,,,0.00,Weather View 32 v70,2013-03-22 15:24:00,
2013-03-22 11:29:00,31.8,-58.4,29.58,NW,323,10.0,96.0,1,0.00,,,0.00,Weather View 32 v70,2013-03-22 15:29:00,
2013-03-22 11:34:00,36.3,-2.8,29.59,NW,325,10.0,999.9,18,0.00,,,0.00,Weather View 32 v70,2013-03-22 15:34:00,
2013-03-22 11:39:00,39.7,0.6,29.59,West,279,4.0,999.9,19,0.00,,,0.00,Weather View 32 v70,2013-03-22 15:39:00,
2013-03-22 11:44:00,36.3,-3.7,29.62,NNW,338,6.0,999.9,18,0.00,,,0.00,Weather View 32 v70,2013-03-22 15:44:00,
2013-03-22 11:49:00,38.5,-1.2,29.62,North,0,3.0,999.9,18,0.00,,,0.00,Weather View 32 v70,2013-03-22 15:49:00,
2013-03-22 11:54:00,-999.9,0.0,1.00,North,5,0.0,999.9,1,0.00,,,0.00,Weather View 32 v70,2013-03-22 15:54:00,
2013-03-22 11:59:00,36.8,-3.2,29.62,North,350,5.0,999.9,18,0.00,,,0.00,Weather View 32 v70,2013-03-22 15:59:00,
2013-03-22 12:04:00,39.5,-0.2,29.65,WNW,301,6.0,999.9,18,0.00,,,0.00,Weather View 32 v70,2013-03-22 16:04:00,
2013-03-22 12:09:00,40.1,-0.7,29.62,NE,46,3.0,999.9,18,0.00,,,0.00,Weather View 32 v70,2013-03-22 16:09:00,
2013-03-22 12:14:00,38.3,-4.3,29.62,North,352,0.0,999.9,16,0.00,,,0.00,Weather View 32 v70,2013-03-22 16:14:00,
2013-03-22 12:19:00,40.3,-2.0,29.62,NW,311,2.0,999.9,16,0.00,,,0.00,Weather View 32 v70,2013-03-22 16:19:00,
2013-03-22 12:24:00,39.9,-1.6,29.62,SW,229,2.0,999.9,17,0.00,,,0.00,Weather View 32 v70,2013-03-22 16:24:00,
2013-03-22 12:29:00,38.6,-3.1,29.59,North,352,8.0,999.9,17,0.00,,,0.00,Weather View 32 v70,2013-03-22 16:29:00,
2013-03-22 12:34:00,39.9,-2.3,29.59,NNE,15,9.0,999.9,16,0.00,,,0.00,Weather View 32 v70,2013-03-22 16:34:00,
2013-03-22 12:39:00,39.5,-4.8,29.65,NW,324,5.0,999.9,15,0.00,,,0.00,Weather View 32 v70,2013-03-22 16:39:00,
2013-03-22 12:44:00,36.8,-6.0,29.62,NNW,329,6.0,999.9,15,0.00,,,0.00,Weather View 32 v70,2013-03-22 16:44:00,
2013-03-22 12:49:00,39.0,-1.8,29.62,NW,316,5.0,999.9,17,0.00,,,0.00,Weather View 32 v70,2013-03-22 16:49:00,
2013-03-22 12:54:00,38.1,-4.0,29.62,WNW,285,13.0,999.9,16,0.00,,,0.00,Weather View 32 v70,2013-03-22 16:54:00,
2013-03-22 13:00:00,41.3,-2.9,29.62,NE,54,4.0,19.0,15,0.00,,,0.00,Weather View 32 v70,2013-03-22 17:00:00,
2013-03-22 13:05:00,40.8,-2.8,29.62,NW,307,11.0,19.0,15,0.00,,,0.00,Weather View 32 v70,2013-03-22 17:05:00,
2013-03-22 13:10:00,40.3,-4.9,29.62,North,9,4.0,19.0,14,0.00,,,0.00,Weather View 32 v70,2013-03-22 17:10:00,
2013-03-22 13:15:00,38.5,-4.7,29.62,NNE,28,4.0,19.0,15,0.00,,,0.00,Weather View 32 v70,2013-03-22 17:15:00,
2013-03-22 13:20:00,37.7,-4.9,29.62,WNW,287,10.0,19.0,16,0.00,,,0.00,Weather View 32 v70,2013-03-22 17:20:00,
2013-03-22 13:25:00,39.5,-3.7,29.62,North,0,3.0,19.0,16,0.00,,,0.00,Weather View 32 v70,2013-03-22 17:25:00,
2013-03-22 13:30:00,39.0,-3.8,29.62,WNW,295,3.0,19.0,16,0.00,,,0.00,Weather View 32 v70,2013-03-22 17:30:00,
2013-03-22 13:35:00,41.9,-2.7,29.62,SSE,158,1.0,19.0,15,0.00,,,0.00,Weather View 32 v70,2013-03-22 17:35:00,
2013-03-22 13:40:00,41.7,-3.0,29.59,NNW,337,5.0,19.0,15,0.00,,,0.00,Weather View 32 v70,2013-03-22 17:40:00,
2013-03-22 13:45:00,41.9,-4.3,29.62,NE,38,8.0,19.0,14,0.00,,,0.00,Weather View 32 v70,2013-03-22 17:45:00,
2013-03-22 13:50:00,37.6,-4.7,29.62,NNW,338,6.0,19.0,16,0.00,,,0.00,Weather View 32 v70,2013-03-22 17:50:00,
2013-03-22 13:55:00,41.9,-0.4,29.62,West,275,10.0,17.0,17,0.00,,,0.00,Weather View 32 v70,2013-03-22 17:55:00,
2013-03-22 14:00:00,39.5,-8.6,29.56,West,265,11.0,30.0,12,0.00,,,0.00,Weather View 32 v70,2013-03-22 18:00:00,
2013-03-22 14:05:00,37.9,-54.6,29.59,North,0,999.9,999.9,1,0.00,,,0.00,Weather View 32 v70,2013-03-22 18:05:00,
2013-03-22 14:10:00,31.8,-58.4,0.00,NNW,338,13.0,999.9,1,0.00,,,0.00,Weather View 32 v70,2013-03-22 18:10:00,
2013-03-22 14:15:00,39.7,-4.9,29.62,WSW,243,1.0,999.9,15,0.00,,,0.00,Weather View 32 v70,2013-03-22 18:15:00,
2013-03-22 14:20:00,41.2,-7.5,29.59,North,8,1.0,999.9,12,0.00,,,0.00,Weather View 32 v70,2013-03-22 18:20:00,
2013-03-22 14:25:00,39.5,-9.3,29.62,West,262,11.0,999.9,12,0.00,,,0.00,Weather View 32 v70,2013-03-22 18:25:00,
2013-03-22 14:30:00,40.8,-8.5,29.62,WNW,287,11.0,999.9,12,0.00,,,0.00,Weather View 32 v70,2013-03-22 18:30:00,
2013-03-22 14:35:00,41.7,-5.9,29.62,NW,315,9.0,999.9,13,0.00,,,0.00,Weather View 32 v70,2013-03-22 18:35:00,
2013-03-22 14:40:00,41.2,-7.0,29.59,South,185,2.0,999.9,12,0.00,,,0.00,Weather View 32 v70,2013-03-22 18:40:00,
2013-03-22 14:45:00,42.1,-9.5,29.59,West,275,9.0,999.9,11,0.00,,,0.00,Weather View 32 v70,2013-03-22 18:45:00,
2013-03-22 14:50:00,43.9,-8.5,29.59,WNW,291,6.0,999.9,10,0.00,,,0.00,Weather View 32 v70,2013-03-22 18:50:00,
2013-03-22 14:55:00,45.3,-7.5,29.62,ENE,71,8.0,999.9,10,0.00,,,0.00,Weather View 32 v70,2013-03-22 18:55:00,
2013-03-22 15:00:00,42.2,-15.2,29.59,NNW,341,5.0,999.9,8,0.00,,,0.00,Weather View 32 v70,2013-03-22 19:00:00,
2013-03-22 15:05:00,42.4,-16.4,29.59,NW,307,6.0,999.9,7,0.00,,,0.00,Weather View 32 v70,2013-03-22 19:05:00,
2013-03-22 15:10:00,43.0,-14.2,29.59,NW,317,9.0,22.0,8,0.00,,,0.00,Weather View 32 v70,2013-03-22 19:10:00,
2013-03-22 15:15:00,43.5,-11.2,29.59,North,9,8.0,22.0,9,0.00,,,0.00,Weather View 32 v70,2013-03-22 19:15:00,
2013-03-22 15:20:00,40.3,-13.3,29.59,WNW,287,16.0,22.0,9,0.00,,,0.00,Weather View 32 v70,2013-03-22 19:20:00,
2013-03-22 15:25:00,39.9,-10.8,29.62,West,268,4.0,22.0,11,0.00,,,0.00,Weather View 32 v70,2013-03-22 19:25:00,
2013-03-22 15:30:00,39.9,-12.3,29.59,NW,315,7.0,22.0,10,0.00,,,0.00,Weather View 32 v70,2013-03-22 19:30:00,
2013-03-22 15:35:00,40.3,-11.3,29.59,West,274,3.0,22.0,10,0.00,,,0.00,Weather View 32 v70,2013-03-22 19:35:00,
2013-03-22 15:40:00,41.2,-8.5,29.59,SW,226,10.0,21.0,12,0.00,,,0.00,Weather View 32 v70,2013-03-22 19:40:00,
2013-03-22 15:45:00,42.6,-7.9,29.59,NNW,334,5.0,21.0,11,0.00,,,0.00,Weather View 32 v70,2013-03-22 19:45:00,
2013-03-22 15:50:00,40.4,-11.5,29.59,WSW,245,2.0,21.0,10,0.00,,,0.00,Weather View 32 v70,2013-03-22 19:50:00,
2013-03-22 15:55:00,41.9,-10.6,29.59,West,273,7.0,23.0,10,0.00,,,0.00,Weather View 32 v70,2013-03-22 19:55:00,
2013-03-22 16:00:00,41.0,-8.3,29.59,NNW,332,4.0,23.0,12,0.00,,,0.00,Weather View 32 v70,2013-03-22 20:00:00,
2013-03-22 16:05:00,43.5,-6.7,29.59,NNW,345,7.0,23.0,12,0.00,,,0.00,Weather View 32 v70,2013-03-22 20:05:00,
2013-03-22 16:10:00,42.6,-9.2,29.59,West,273,4.0,23.0,11,0.00,,,0.00,Weather View 32 v70,2013-03-22 20:10:00,
2013-03-22 16:15:00,40.4,-8.1,29.59,WSW,251,2.0,23.0,12,0.00,,,0.00,Weather View 32 v70,2013-03-22 20:15:00,
2013-03-22 16:20:00,41.3,-9.8,29.59,WNW,284,17.0,23.0,11,0.00,,,0.00,Weather View 32 v70,2013-03-22 20:20:00,
2013-03-22 16:25:00,39.9,-8.7,29.62,WNW,295,11.0,23.0,12,0.00,,,0.00,Weather View 32 v70,2013-03-22 20:25:00,
2013-03-22 16:30:00,41.9,-4.3,29.65,NNW,329,7.0,23.0,14,0.00,,,0.00,Weather View 32 v70,2013-03-22 20:30:00,
2013-03-22 16:35:00,44.2,-3.7,29.62,West,269,4.0,23.0,13,0.00,,,0.00,Weather View 32 v70,2013-03-22 20:35:00,
2013-03-22 16:40:00,43.0,-4.9,29.59,NW,309,2.0,23.0,13,0.00,,,0.00,Weather View 32 v70,2013-03-22 20:40:00,
2013-03-22 16:45:00,41.9,-7.4,29.62,WNW,295,6.0,23.0,12,0.00,,,0.00,Weather View 32 v70,2013-03-22 20:45:00,
2013-03-22 16:50:00,41.2,-5.4,29.59,WSW,258,4.0,23.0,13,0.00,,,0.00,Weather View 32 v70,2013-03-22 20:50:00,
2013-03-22 16:55:00,41.5,-6.5,29.62,NW,308,10.0,19.0,13,0.00,,,0.00,Weather View 32 v70,2013-03-22 20:55:00,
2013-03-22 17:00:00,41.0,-6.6,29.62,NW,312,6.0,19.0,13,0.00,,,0.00,Weather View 32 v70,2013-03-22 21:00:00,
2013-03-22 17:05:00,39.9,-5.9,29.62,NW,319,4.0,19.0,14,0.00,,,0.00,Weather View 32 v70,2013-03-22 21:05:00,
2013-03-22 17:10:00,40.6,-3.9,29.65,NW,308,12.0,19.0,15,0.00,,,0.00,Weather View 32 v70,2013-03-22 21:10:00,
2013-03-22 17:15:00,41.3,-3.7,29.62,WNW,288,11.0,19.0,14,0.00,,,0.00,Weather View 32 v70,2013-03-22 21:15:00,
2013-03-22 17:20:00,41.5,-3.9,29.62,SW,235,5.0,19.0,14,0.00,,,0.00,Weather View 32 v70,2013-03-22 21:20:00,
2013-03-22 17:25:00,40.1,-5.5,29.62,WNW,303,10.0,19.0,14,0.00,,,0.00,Weather View 32 v70,2013-03-22 21:25:00,
2013-03-22 17:30:00,39.9,-4.6,29.62,West,268,7.0,19.0,15,0.00,,,0.00,Weather View 32 v70,2013-03-22 21:30:00,
2013-03-22 17:35:00,40.3,-2.7,29.62,West,259,2.0,19.0,16,0.00,,,0.00,Weather View 32 v70,2013-03-22 21:35:00,
2013-03-22 17:40:00,41.2,-3.6,29.62,NNW,341,7.0,16.0,15,0.00,,,0.00,Weather View 32 v70,2013-03-22 21:40:00,
2013-03-22 17:45:00,41.5,-2.6,29.62,SW,231,2.0,18.0,15,0.00,,,0.00,Weather View 32 v70,2013-03-22 21:45:00,
2013-03-22 17:50:00,42.1,-3.0,29.62,NW,312,3.0,18.0,15,0.00,,,0.00,Weather View 32 v70,2013-03-22 21:50:00,
2013-03-22 17:55:00,39.5,-4.6,29.62,NW,321,3.0,18.0,15,0.00,,,0.00,Weather View 32 v70,2013-03-22 21:55:00,
2013-03-22 18:00:00,38.6,-5.6,29.62,WNW,291,8.0,18.0,15,0.00,,,0.00,Weather View 32 v70,2013-03-22 22:00:00,
2013-03-22 18:05:00,39.0,-4.8,29.62,North,350,5.0,18.0,15,0.00,,,0.00,Weather View 32 v70,2013-03-22 22:05:00,
2013-03-22 18:10:00,39.4,-4.4,29.62,North,8,1.0,18.0,15,0.00,,,0.00,Weather View 32 v70,2013-03-22 22:10:00,
2013-03-22 18:15:00,39.0,-5.1,29.62,NW,324,3.0,18.0,15,0.00,,,0.00,Weather View 32 v70,2013-03-22 22:15:00,
2013-03-22 18:20:00,37.9,-6.5,29.62,NW,316,7.0,18.0,14,0.00,,,0.00,Weather View 32 v70,2013-03-22 22:20:00,
2013-03-22 18:25:00,38.1,-5.7,29.62,WNW,295,9.0,18.0,15,0.00,,,0.00,Weather View 32 v70,2013-03-22 22:25:00,
2013-03-22 18:30:00,38.5,-4.9,29.62,WNW,303,3.0,18.0,15,0.00,,,0.00,Weather View 32 v70,2013-03-22 22:30:00,
2013-03-22 18:35:00,37.9,-5.2,29.62,West,264,2.0,18.0,15,0.00,,,0.00,Weather View 32 v70,2013-03-22 22:35:00,
2013-03-22 18:40:00,38.1,-4.6,29.62,NW,304,2.0,18.0,16,0.00,,,0.00,Weather View 32 v70,2013-03-22 22:40:00,
2013-03-22 18:45:00,37.7,-5.0,29.62,WSW,258,2.0,14.0,16,0.00,,,0.00,Weather View 32 v70,2013-03-22 22:45:00,
2013-03-22 18:50:00,37.7,-5.0,29.65,NW,306,2.0,14.0,16,0.00,,,0.00,Weather View 32 v70,2013-03-22 22:50:00,
2013-03-22 18:55:00,37.9,-4.7,29.65,North,5,5.0,14.0,16,0.00,,,0.00,Weather View 32 v70,2013-03-22 22:55:00,
2013-03-22 19:00:00,37.2,-3.2,29.62,NNW,348,3.0,14.0,17,0.00,,,0.00,Weather View 32 v70,2013-03-22 23:00:00,
2013-03-22 19:05:00,36.7,-3.2,29.65,WNW,298,6.0,14.0,18,0.00,,,0.00,Weather View 32 v70,2013-03-22 23:05:00,
2013-03-22 19:10:00,36.7,-2.2,29.65,North,8,0.0,14.0,19,0.00,,,0.00,Weather View 32 v70,2013-03-22 23:10:00,
2013-03-22 19:20:00,37.0,-1.1,29.65,WNW,291,1.0,12.0,19,0.00,,,0.00,Weather View 32 v70,2013-03-22 23:20:00,
2013-03-22 19:25:00,36.7,-0.4,29.65,WSW,245,1.0,15.0,20,0.00,,,0.00,Weather View 32 v70,2013-03-22 23:25:00,
2013-03-22 19:30:00,36.3,-0.1,29.65,West,270,2.0,15.0,21,0.00,,,0.00,Weather View 32 v70,2013-03-22 23:30:00,
2013-03-22 19:35:00,36.3,-0.4,29.65,West,273,3.0,15.0,21,0.00,,,0.00,Weather View 32 v70,2013-03-22 23:35:00,
2013-03-22 19:40:00,36.1,0.1,29.65,WNW,285,8.0,15.0,21,0.00,,,0.00,Weather View 32 v70,2013-03-22 23:40:00,
2013-03-22 19:45:00,36.1,0.4,29.65,WNW,303,5.0,15.0,22,0.00,,,0.00,Weather View 32 v70,2013-03-22 23:45:00,
2013-03-22 19:50:00,35.8,0.1,29.65,West,279,4.0,15.0,22,0.00,,,0.00,Weather View 32 v70,2013-03-22 23:50:00,
2013-03-22 19:55:00,35.8,0.7,29.65,WSW,251,3.0,15.0,22,0.00,,,0.00,Weather View 32 v70,2013-03-22 23:55:00,
2013-03-22 20:00:00,35.8,1.5,29.68,WNW,299,11.0,15.0,23,0.00,,,0.00,Weather View 32 v70,2013-03-23 00:00:00,
2013-03-22 20:05:00,35.8,1.2,29.65,WNW,284,7.0,15.0,23,0.00,,,0.00,Weather View 32 v70,2013-03-23 00:05:00,
2013-03-22 20:10:00,35.8,1.7,29.65,West,263,2.0,15.0,23,0.00,,,0.00,Weather View 32 v70,2013-03-23 00:10:00,
2013-03-22 20:15:00,35.6,1.1,29.68,West,279,3.0,15.0,23,0.00,,,0.00,Weather View 32 v70,2013-03-23 00:15:00,
2013-03-22 20:20:00,35.2,1.7,29.68,West,273,4.0,15.0,24,0.00,,,0.00,Weather View 32 v70,2013-03-23 00:20:00,
2013-03-22 20:25:00,35.2,1.8,29.68,West,263,2.0,12.0,24,0.00,,,0.00,Weather View 32 v70,2013-03-23 00:25:00,
2013-03-22 20:30:00,35.4,2.3,29.68,WNW,289,3.0,12.0,24,0.00,,,0.00,Weather View 32 v70,2013-03-23 00:30:00,
2013-03-22 20:35:00,35.4,2.2,29.68,NNW,336,5.0,12.0,24,0.00,,,0.00,Weather View 32 v70,2013-03-23 00:35:00,
2013-03-22 20:40:00,35.8,2.1,29.68,WNW,299,1.0,12.0,24,0.00,,,0.00,Weather View 32 v70,2013-03-23 00:40:00,
2013-03-22 20:45:00,35.8,2.4,29.68,WNW,282,2.0,12.0,24,0.00,,,0.00,Weather View 32 v70,2013-03-23 00:45:00,
2013-03-22 20:50:00,35.4,1.3,29.65,SSW,202,2.0,12.0,23,0.00,,,0.00,Weather View 32 v70,2013-03-23 00:50:00,
2013-03-22 20:55:00,35.9,1.5,29.68,NNW,331,1.0,12.0,23,0.00,,,0.00,Weather View 32 v70,2013-03-23 00:55:00,
2013-03-22 21:00:00,36.1,1.8,29.68,WNW,296,2.0,12.0,23,0.00,,,0.00,Weather View 32 v70,2013-03-23 01:00:00,
2013-03-22 21:05:00,36.1,1.3,29.68,West,261,2.0,12.0,22,0.00,,,0.00,Weather View 32 v70,2013-03-23 01:05:00,
2013-03-22 21:10:00,35.9,1.6,29.68,WSW,241,2.0,12.0,23,0.00,,,0.00,Weather View 32 v70,2013-03-23 01:10:00,
2013-03-22 21:15:00,35.8,2.1,29.68,West,262,3.0,12.0,24,0.00,,,0.00,Weather View 32 v70,2013-03-23 01:15:00,
2013-03-22 21:20:00,35.4,3.0,29.68,North,0,6.0,18.0,25,0.00,,,0.00,Weather View 32 v70,2013-03-23 01:20:00,
2013-03-22 21:25:00,35.4,3.8,29.68,SW,221,1.0,18.0,26,0.00,,,0.00,Weather View 32 v70,2013-03-23 01:25:00,
2013-03-22 21:30:00,35.2,3.9,29.68,SSE,161,1.0,18.0,26,0.00,,,0.00,Weather View 32 v70,2013-03-23 01:30:00,
2013-03-22 21:35:00,34.7,3.5,29.68,NNW,328,8.0,18.0,26,0.00,,,0.00,Weather View 32 v70,2013-03-23 01:35:00,
2013-03-22 21:45:00,34.3,4.3,29.68,WSW,252,2.0,18.0,28,0.00,,,0.00,Weather View 32 v70,2013-03-23 01:45:00,
2013-03-22 21:50:00,34.3,4.2,29.68,NW,326,3.0,18.0,28,0.00,,,0.00,Weather View 32 v70,2013-03-23 01:50:00,
2013-03-22 21:55:00,34.3,4.2,29.71,WNW,285,3.0,18.0,28,0.00,,,0.00,Weather View 32 v70,2013-03-23 01:55:00,
2013-03-22 22:00:00,34.1,4.2,29.71,WNW,300,3.0,18.0,28,0.00,,,0.00,Weather View 32 v70,2013-03-23 02:00:00,
2013-03-22 22:05:00,33.8,4.6,29.71,NW,312,8.0,18.0,29,0.00,,,0.00,Weather View 32 v70,2013-03-23 02:05:00,
2013-03-22 22:10:00,34.0,4.9,29.71,ENE,62,2.0,18.0,29,0.00,,,0.00,Weather View 32 v70,2013-03-23 02:10:00,
2013-03-22 22:15:00,33.4,5.2,29.71,North,357,5.0,18.0,30,0.00,,,0.00,Weather View 32 v70,2013-03-23 02:15:00,
2013-03-22 22:20:00,33.4,5.0,29.71,NNW,337,1.0,18.0,30,0.00,,,0.00,Weather View 32 v70,2013-03-23 02:20:00,
2013-03-22 22:25:00,33.2,5.6,29.71,NW,323,2.0,11.0,31,0.00,,,0.00,Weather View 32 v70,2013-03-23 02:25:00,
2013-03-22 22:30:00,33.2,5.6,29.71,NNW,346,1.0,11.0,31,0.00,,,0.00,Weather View 32 v70,2013-03-23 02:30:00,
2013-03-22 22:35:00,33.1,5.5,29.71,West,268,2.0,11.0,31,0.00,,,0.00,Weather View 32 v70,2013-03-23 02:35:00,
2013-03-22 22:40:00,32.9,5.6,29.71,NNW,333,3.0,11.0,31,0.00,,,0.00,Weather View 32 v70,2013-03-23 02:40:00,
2013-03-22 22:45:00,32.9,5.6,29.71,WSW,252,2.0,11.0,31,0.00,,,0.00,Weather View 32 v70,2013-03-23 02:45:00,
2013-03-22 22:50:00,32.9,6.1,29.71,SSW,207,1.0,11.0,32,0.00,,,0.00,Weather View 32 v70,2013-03-23 02:50:00,
2013-03-22 22:55:00,32.5,5.7,29.71,WSW,242,1.0,11.0,32,0.00,,,0.00,Weather View 32 v70,2013-03-23 02:55:00,
2013-03-22 23:00:00,32.7,6.0,29.71,ESE,123,3.0,11.0,32,0.00,,,0.00,Weather View 32 v70,2013-03-23 03:00:00,
2013-03-22 23:05:00,32.5,5.8,29.68,SE,145,2.0,11.0,32,0.00,,,0.00,Weather View 32 v70,2013-03-23 03:05:00,
2013-03-22 23:10:00,32.3,5.7,29.71,NE,54,2.0,11.0,32,0.00,,,0.00,Weather View 32 v70,2013-03-23 03:10:00,
2013-03-22 23:15:00,32.0,5.6,29.71,NE,36,0.0,11.0,32,0.00,,,0.00,Weather View 32 v70,2013-03-23 03:15:00,
2013-03-22 23:20:00,32.0,6.1,29.71,SW,216,0.0,11.0,33,0.00,,,0.00,Weather View 32 v70,2013-03-23 03:20:00,
2013-03-22 23:25:00,31.8,6.2,29.71,South,183,1.0,8.0,33,0.00,,,0.00,Weather View 32 v70,2013-03-23 03:25:00,
2013-03-22 23:30:00,32.0,6.0,29.71,SSE,165,3.0,7.0,33,0.00,,,0.00,Weather View 32 v70,2013-03-23 03:30:00,
2013-03-22 23:35:00,31.6,6.4,29.74,South,187,5.0,7.0,34,0.00,,,0.00,Weather View 32 v70,2013-03-23 03:35:00,
2013-03-22 23:40:00,31.6,6.5,29.71,SSE,161,3.0,7.0,34,0.00,,,0.00,Weather View 32 v70,2013-03-23 03:40:00,
2013-03-22 23:45:00,31.6,6.5,29.71,SSW,203,3.0,7.0,34,0.00,,,0.00,Weather View 32 v70,2013-03-23 03:45:00,
2013-03-22 23:50:00,31.6,6.4,29.71,SSE,161,3.0,7.0,34,0.00,,,0.00,Weather View 32 v70,2013-03-23 03:50:00,
2013-03-22 23:55:00,31.4,6.2,29.71,SSW,208,2.0,7.0,34,0.00,,,0.00,Weather View 32 v70,2013-03-23 03:55:00,